Location: Biltmore Gardens
(41.6070°N, 83.4666°W)
Time: 14:54:53
(UTC+00:00)

Meteor 1-10 Rocket - Pass Details

Date: 14 July 2020
Orbit: 835 x 911 km, 81.3° (Epoch: 13 August)

Event Time Altitude Azimuth Distance (km) Brightness Sun altitude
Rises 05:34:16 0° 347° (NNW) 3,397 8.6 -26.8°
Reaches altitude 10° 05:36:42 10° 344° (NNW) 2,456 7.5 -26.8°
Maximum altitude 05:42:11 65° 264° (W) 918 4.2 -26.8°
Enters shadow 05:42:20 65° 254° (WSW) 920 4.2 -26.8°
